Tracking 33747 objects as of 11-Apr-2026
HD Live streaming from Space Station
objects crossing your sky now

STARLINK-1337

Track STARLINK-1337 now!
10-day predictions
STARLINK-1337 is classified as:


NORAD ID: 45582
Int'l Code: 2020-025BD
Perigee: 377.6 km
Apogee: 383.9 km
Inclination: 53.0 °
Period: 92.0 minutes
Semi major axis: 6751 km
RCS: Unknown
Launch date: April 22, 2020
Source: United States (US)
Launch site: AIR FORCE EASTERN TEST RANGE (AFETR)
Your satellite tracking list
Your tracking list is empty




NASA's NSSDC Master Catalog

Two Line Element Set (TLE):
1 45582U 20025BD  26100.94915921  .00097755  00000-0  97560-3 0  9995
2 45582  53.0499 264.3514 0004689 246.2001 113.8522 15.64868403330758
Source of the keplerian elements: AFSPC